User: anonymous   Login
Location: Unspecified
(0.0000°N, 0.0000°E)
Time: 09:19:23
(UTC+00:00)
Language:

Gonets-D1 - Orbit

View from above orbital plane
View from above orbital plane
View from above satellite
View from above satellite

Ground track
Ground track

The orbit data is extracted from the following two-line orbital elements,

1 24727U 97006C   17268.68427506 +.00000024 +00000-0 +72673-4 0  9991
2 24727 082.6017 121.5806 0001408 090.3534 329.5811 12.62318451949574
Epoch (UTC): 25 September 2017 16:25:21
Eccentricity: 0.0001408
inclination: 82.6017°
perigee height: 1412 km
apogee height: 1414 km
right ascension of ascending node: 121.5806°
argument of perigee: 90.3534°
revolutions per day: 12.62318451
mean anomaly at epoch: 329.5811°
orbit number at epoch: 94957

The dashed part of the orbit path shows where the satellite is in the earth's shadow,  

DLR